Wind_Speed
17 17 16 15 15 15 14 15 15 16 16 16 17 17 17 16 17 17 18 18 17 18 18 17 17 17 18 17 16 16 16 16 16 16 16 16 16 16 16 16 16 16 15 15
18 17 15 15 15 16 16 16 16 16 16 17 18 18 17 18 17 18 18 18 19 19 19 18 18 18 19 18 17 17 17 17 17 17 16 16 16 17 16 16 16 16 16 17
17 15 16 16 17 18 18 17 16 16 17 18 19 19 18 18 18 19 19 19 19 18 18 18 18 19 19 18 17 17 17 17 18 18 18 18 17 17 17 16 16 17 17 18
17 16 17 18 19 18 18 17 16 17 19 18 18 20 18 18 20 20 19 19 19 18 18 18 19 18 18 19 19 18 18 18 17 17 18 17 17 18 17 18 18 19 19 19
18 19 20 20 20 19 19 19 19 19 20 20 18 19 20 18 20 20 19 19 19 19 18 18 19 19 19 19 19 18 19 19 18 18 17 18 18 18 18 18 19 20 20 19
18 20 21 20 20 20 19 19 20 20 20 22 19 20 21 21 21 20 20 20 19 19 19 19 19 19 19 19 19 18 18 18 18 18 18 18 18 18 19 19 20 20 20 20
18 19 20 20 20 20 20 19 19 19 19 20 18 21 22 21 22 21 21 20 19 20 20 20 20 20 19 19 18 18 18 17 17 18 19 19 19 19 20 20 20 20 21 21
18 19 19 20 20 20 20 20 20 18 17 18 18 21 20 21 22 22 20 20 20 20 20 20 19 19 19 19 18 18 19 18 18 19 19 20 20 20 20 20 21 21 21 21
18 18 19 20 21 20 21 21 20 18 18 19 19 21 21 22 21 22 21 20 19 20 20 19 19 18 19 19 19 20 19 20 20 20 20 20 20 21 21 21 21 21 21 21
20 20 20 20 21 21 21 20 19 20 20 21 20 20 22 22 21 22 22 20 19 20 20 19 20 19 20 19 19 19 20 20 21 21 20 20 21 21 21 22 21 21 21 20
21 22 21 21 22 21 21 22 22 23 22 21 21 21 21 23 23 22 21 18 18 20 20 19 19 20 21 20 18 18 20 20 21 21 21 21 20 21 21 21 21 20 20 20
23 23 23 22 21 22 21 21 23 24 24 23 22 24 22 23 23 23 21 20 20 20 20 20 20 20 20 20 20 19 20 20 20 21 22 21 21 21 21 21 21 20 20 19
24 24 23 22 21 23 23 23 24 25 25 25 24 25 25 25 24 23 22 22 22 21 20 20 20 20 20 20 20 21 21 21 21 21 22 22 22 22 22 21 21 20 20 19
24 25 23 22 21 21 23 23 24 25 25 25 25 26 25 25 26 24 23 23 24 22 21 21 22 21 21 21 22 22 22 21 21 21 22 22 22 22 21 21 20 20 20 19
25 25 24 23 22 23 25 25 24 25 25 25 25 27 26 25 27 26 25 25 25 24 22 22 23 22 21 22 22 22 22 22 21 21 22 21 20 21 21 20 20 20 20 20
26 25 24 24 23 23 25 25 25 26 27 27 27 27 27 28 28 28 27 26 26 25 24 24 23 23 23 22 23 22 22 22 22 22 21 20 20 20 20 20 20 20 20 20
25 25 25 24 24 24 25 25 26 27 28 27 28 27 28 29 29 30 29 27 26 25 25 24 24 24 23 23 23 22 22 22 22 21 21 21 20 20 20 20 20 20 20 20
25 25 25 24 24 25 25 25 27 27 27 29 30 31 29 29 28 28 28 27 27 26 25 25 24 24 24 24 23 22 22 22 22 22 21 21 20 20 20 20 20 20 20 20
25 25 25 24 24 25 26 25 26 27 28 29 31 30 29 29 28 27 27 27 27 26 26 26 26 25 25 25 24 22 22 22 21 22 22 21 20 19 19 19 20 20 20 19
24 25 25 25 25 25 26 26 27 28 29 29 29 28 27 26 26 26 27 27 27 27 27 27 26 26 25 24 24 23 22 22 22 22 22 21 20 19 19 19 19 19 19 19
23 24 26 26 26 26 26 27 27 28 29 28 28 27 26 26 26 25 25 25 25 26 27 27 26 26 26 25 25 24 23 23 22 22 21 20 19 19 18 18 19 19 19 18
22 23 25 26 27 27 26 27 27 28 28 28 27 26 26 26 26 25 25 24 25 25 25 26 26 25 25 25 25 25 24 23 23 22 21 20 20 19 19 19 19 18 18 17
24 25 24 26 27 26 26 28 28 27 27 27 27 27 27 26 26 26 25 25 25 25 25 25 25 25 25 25 25 25 24 24 24 23 21 21 20 20 20 20 20 19 19 18
25 25 26 27 27 27 27 28 28 27 27 28 28 27 27 26 25 26 25 25 25 25 25 24 24 24 24 24 24 24 24 25 24 23 23 22 22 21 21 21 20 20 20 19
25 25 26 27 27 27 27 26 26 26 26 26 26 25 26 26 26 26 25 25 24 24 24 23 23 22 22 23 23 23 24 23 24 24 23 23 23 23 22 21 20 19 19 20
24 24 25 25 26 26 27 26 25 26 26 24 24 25 25 25 25 25 25 24 24 24 24 23 22 22 22 22 22 21 21 22 23 23 23 23 22 22 22 20 19 19 19 19
Wind_Direction
225 226 225 227 233 233 231 241 241 244 251 258 266 267 262 262 268 271 275 278 276 278 281 279 280 277 278 279 280 282 285 289 293 295 296 299 300 301 302 301 300 299 298 295
223 227 228 228 231 234 231 237 242 249 257 260 262 266 266 265 268 275 276 277 274 274 278 279 280 279 279 280 281 281 283 287 291 293 294 295 296 299 301 301 299 296 297 296
227 228 232 231 232 236 235 238 239 244 257 261 265 268 269 271 270 273 274 274 272 274 275 275 277 277 276 278 279 282 284 285 287 290 291 292 295 299 302 301 299 298 296 294
229 228 233 234 236 239 241 241 241 243 252 259 267 272 271 272 273 275 275 274 274 272 272 275 274 274 274 275 277 280 283 284 287 290 292 293 295 296 299 300 300 298 297 293
229 230 235 237 238 239 239 239 241 244 250 252 259 268 273 273 271 275 274 272 270 269 270 274 276 274 272 274 278 279 280 282 284 286 291 295 296 297 297 297 299 299 301 299
230 235 239 240 240 240 239 242 248 250 252 255 258 263 266 268 272 272 270 268 271 272 271 272 275 273 273 275 279 280 278 279 281 283 287 293 296 296 297 298 300 300 299 299
234 235 239 240 238 238 239 239 248 253 255 260 260 258 262 264 269 269 270 269 272 271 273 273 271 271 273 275 277 280 278 279 282 285 287 290 292 294 297 299 301 302 302 301
240 243 240 239 239 240 241 238 240 245 254 261 257 257 259 258 264 265 268 268 268 271 272 271 270 271 273 273 274 276 278 280 284 286 286 287 290 292 295 299 301 303 303 304
234 243 243 241 240 237 239 237 237 242 249 256 255 256 260 258 261 266 267 266 269 272 271 268 267 266 271 271 275 275 277 279 283 286 285 284 287 290 294 298 300 304 306 307
231 236 237 242 244 239 238 237 232 234 246 254 256 257 264 265 264 267 269 269 270 272 272 271 270 266 271 270 274 276 280 280 282 285 285 284 285 288 292 296 299 302 306 308
236 239 235 240 243 242 237 236 235 236 239 250 257 254 259 266 267 269 271 274 274 273 274 270 267 269 271 273 275 279 283 284 284 284 285 285 285 287 292 295 297 299 303 306
238 242 239 237 242 241 239 238 238 238 238 241 252 259 258 263 266 268 271 273 272 271 273 269 268 269 271 275 276 279 286 288 287 285 285 285 285 287 289 292 293 295 299 302
235 240 240 237 241 244 241 239 240 242 243 244 249 258 259 260 265 270 271 272 272 271 272 269 267 269 274 277 278 281 285 287 288 287 285 284 285 287 289 289 290 292 294 297
239 241 241 237 237 243 245 240 237 240 245 248 249 254 256 262 267 268 270 271 272 272 271 265 265 267 272 276 279 280 281 283 286 286 285 284 284 284 285 286 286 289 291 293
241 242 242 238 236 238 241 242 240 241 243 249 252 251 255 261 267 268 271 271 272 272 269 265 266 269 274 275 278 279 279 281 283 285 285 284 283 282 282 283 285 286 289 293
243 243 243 241 242 242 244 243 241 242 245 246 248 252 255 259 263 267 269 270 271 271 269 268 269 271 273 275 276 278 279 280 281 282 283 284 283 283 282 282 283 284 287 292
248 246 245 243 243 245 247 246 244 245 248 247 247 252 255 258 261 264 266 267 269 270 268 268 268 269 271 274 274 275 278 279 280 280 281 283 283 282 281 281 281 282 286 290
247 244 245 245 244 246 247 248 247 247 249 251 253 253 255 259 263 264 265 267 270 271 269 267 266 265 268 271 272 275 276 278 279 279 281 281 281 280 279 279 279 282 284 288
246 245 246 246 246 248 248 251 252 250 250 252 254 254 256 260 262 265 267 268 270 270 267 265 265 265 266 269 271 272 274 275 276 278 281 280 278 277 277 277 278 279 282 285
246 245 246 245 245 248 251 251 252 252 255 254 254 257 261 262 263 263 266 267 269 269 267 264 265 263 264 266 268 269 271 271 273 276 280 278 275 274 275 276 277 279 280 283
249 248 246 245 247 248 250 251 252 252 253 253 255 259 260 258 263 265 266 268 269 268 266 265 267 265 262 263 264 266 268 269 271 275 276 275 274 273 273 274 276 280 281 282
248 249 248 247 249 252 252 253 254 253 253 255 256 257 257 258 261 264 266 268 269 268 266 266 265 264 265 264 264 264 265 266 268 272 273 272 272 271 272 273 275 278 280 281
248 250 253 253 254 256 253 252 252 253 254 256 258 258 257 258 262 264 264 266 267 268 269 268 264 266 265 264 264 265 263 263 266 269 271 270 270 270 272 273 274 275 276 278
252 252 254 255 257 258 256 253 253 254 256 258 259 260 260 261 263 263 263 265 265 266 267 266 266 267 264 263 263 264 264 263 263 267 269 268 267 268 269 269 270 272 274 277
253 253 254 257 258 261 261 257 253 255 259 259 257 258 259 260 261 263 263 263 263 265 267 268 272 269 264 262 264 264 263 263 262 264 267 267 268 266 266 267 268 271 272 273
255 257 258 259 258 259 259 258 255 255 258 257 256 257 258 260 261 260 261 261 262 266 268 269 271 269 265 263 263 264 263 261 262 263 264 265 267 267 265 265 267 269 270 271
Height
5839 5842 5844 5847 5851 5854 5857 5858 5860 5862 5863 5863 5863 5862 5863 5862 5862 5862 5862 5861 5861 5860 5860 5861 5860 5860 5860 5860 5861 5861 5861 5861 5860 5859 5858 5857 5856 5855 5854 5853 5852 5850 5849 5848
5836 5839 5843 5845 5848 5850 5853 5855 5857 5858 5859 5860 5859 5859 5859 5858 5858 5858 5858 5858 5858 5858 5857 5857 5857 5857 5857 5857 5858 5858 5858 5858 5857 5856 5855 5854 5853 5852 5851 5850 5849 5847 5846 5844
5834 5839 5840 5842 5844 5847 5849 5851 5853 5855 5856 5855 5856 5855 5855 5854 5854 5855 5854 5854 5854 5854 5854 5853 5854 5853 5854 5854 5854 5855 5854 5854 5854 5853 5852 5851 5850 5849 5848 5847 5845 5844 5842 5841
5831 5835 5837 5839 5841 5843 5845 5847 5849 5850 5851 5852 5852 5851 5851 5850 5850 5850 5850 5850 5849 5849 5849 5850 5850 5850 5850 5850 5850 5851 5851 5850 5850 5849 5849 5848 5847 5846 5845 5843 5842 5840 5838 5836
5827 5830 5832 5835 5837 5839 5841 5843 5844 5845 5846 5847 5847 5847 5848 5846 5845 5846 5846 5846 5846 5846 5845 5846 5845 5846 5846 5846 5846 5847 5847 5846 5846 5846 5845 5844 5843 5842 5841 5839 5838 5836 5834 5832
5823 5826 5828 5830 5832 5834 5836 5838 5839 5840 5841 5841 5843 5844 5844 5842 5841 5841 5841 5841 5841 5841 5841 5841 5841 5841 5841 5841 5842 5842 5843 5842 5842 5841 5841 5840 5840 5838 5837 5836 5834 5832 5829 5828
5819 5821 5822 5825 5827 5829 5831 5833 5835 5836 5836 5837 5839 5839 5839 5838 5837 5837 5836 5837 5837 5837 5837 5837 5837 5837 5837 5837 5837 5837 5838 5838 5837 5837 5837 5837 5836 5835 5833 5831 5830 5827 5825 5823
5814 5816 5818 5820 5822 5824 5826 5828 5831 5832 5834 5834 5834 5833 5834 5834 5833 5832 5832 5832 5832 5832 5832 5832 5832 5832 5832 5832 5832 5833 5833 5833 5833 5833 5833 5832 5831 5830 5829 5827 5825 5823 5821 5818
5810 5812 5814 5815 5816 5819 5821 5822 5826 5828 5829 5830 5830 5829 5828 5827 5828 5827 5827 5827 5827 5827 5827 5826 5827 5827 5827 5827 5827 5827 5827 5828 5828 5828 5828 5828 5827 5825 5824 5823 5821 5819 5816 5814
5804 5806 5809 5810 5811 5813 5816 5818 5820 5822 5823 5824 5825 5824 5823 5822 5822 5823 5822 5822 5822 5822 5822 5821 5822 5822 5822 5822 5822 5822 5823 5823 5823 5823 5823 5822 5822 5821 5819 5818 5816 5814 5812 5810
5799 5800 5803 5805 5806 5808 5811 5812 5814 5816 5818 5819 5819 5820 5817 5817 5817 5817 5817 5817 5817 5817 5817 5817 5818 5818 5818 5818 5818 5818 5819 5818 5818 5817 5817 5817 5816 5815 5814 5813 5812 5810 5808 5806
5793 5794 5795 5799 5800 5802 5805 5806 5808 5810 5811 5812 5813 5814 5811 5812 5812 5813 5813 5813 5813 5813 5813 5813 5813 5813 5813 5814 5814 5813 5814 5813 5813 5812 5812 5811 5811 5810 5809 5808 5807 5805 5804 5801
5786 5788 5790 5793 5796 5797 5798 5800 5802 5803 5805 5806 5807 5809 5806 5806 5806 5807 5808 5808 5808 5808 5808 5808 5809 5809 5809 5810 5809 5809 5809 5808 5808 5807 5807 5806 5806 5805 5804 5803 5802 5801 5799 5797
5780 5782 5784 5787 5789 5790 5791 5793 5795 5797 5798 5799 5801 5801 5800 5801 5801 5801 5802 5803 5803 5803 5803 5804 5804 5804 5804 5805 5805 5805 5804 5803 5802 5802 5801 5801 5800 5799 5799 5798 5797 5795 5794 5792
5773 5775 5777 5779 5781 5783 5785 5787 5789 5791 5792 5793 5794 5794 5795 5796 5795 5795 5797 5798 5797 5798 5799 5799 5800 5799 5800 5800 5800 5799 5799 5798 5797 5797 5796 5795 5795 5794 5794 5793 5792 5791 5789 5787
5766 5769 5771 5773 5775 5776 5778 5780 5782 5784 5786 5786 5787 5788 5787 5788 5789 5789 5790 5791 5792 5792 5793 5793 5794 5794 5794 5794 5794 5794 5793 5793 5792 5791 5790 5790 5789 5789 5788 5788 5787 5786 5784 5782
5760 5762 5764 5767 5769 5770 5772 5774 5775 5777 5778 5779 5781 5781 5780 5780 5781 5782 5783 5784 5785 5786 5786 5787 5788 5788 5788 5788 5788 5788 5787 5787 5786 5786 5785 5785 5784 5783 5783 5782 5781 5780 5779 5778
5753 5755 5757 5760 5763 5763 5767 5767 5769 5770 5771 5773 5773 5773 5773 5773 5774 5775 5776 5777 5778 5779 5780 5780 5781 5781 5782 5782 5782 5782 5781 5781 5781 5780 5780 5779 5779 5778 5777 5776 5776 5775 5774 5773
5746 5749 5750 5753 5755 5756 5759 5761 5762 5763 5764 5765 5765 5765 5767 5767 5768 5769 5769 5770 5771 5772 5772 5773 5774 5775 5775 5775 5774 5776 5776 5775 5775 5774 5774 5773 5773 5772 5772 5771 5770 5770 5769 5768
5740 5742 5745 5746 5748 5749 5752 5754 5754 5756 5756 5757 5757 5758 5759 5760 5762 5763 5763 5763 5764 5765 5765 5766 5766 5768 5768 5768 5769 5770 5770 5770 5769 5769 5768 5767 5767 5767 5766 5766 5765 5765 5764 5763
5734 5735 5737 5739 5740 5741 5745 5746 5747 5749 5750 5749 5750 5751 5753 5754 5755 5755 5756 5756 5757 5758 5758 5758 5759 5760 5761 5762 5762 5763 5763 5763 5763 5763 5762 5762 5761 5761 5761 5761 5760 5759 5758 5758
5728 5729 5730 5732 5734 5737 5738 5739 5740 5740 5741 5743 5744 5745 5746 5746 5747 5747 5748 5749 5750 5751 5751 5751 5752 5753 5754 5754 5755 5756 5756 5757 5757 5757 5756 5756 5756 5756 5755 5756 5755 5754 5753 5753
5722 5724 5724 5726 5729 5730 5730 5731 5732 5732 5734 5735 5737 5738 5739 5740 5740 5741 5742 5743 5743 5743 5744 5744 5744 5745 5746 5747 5748 5749 5749 5749 5750 5750 5750 5750 5750 5750 5750 5750 5749 5749 5748 5748
5716 5717 5718 5719 5720 5722 5723 5723 5724 5725 5727 5728 5729 5731 5731 5732 5733 5734 5736 5736 5736 5737 5737 5737 5737 5737 5739 5739 5741 5741 5742 5742 5743 5743 5744 5744 5744 5744 5744 5744 5743 5743 5743 5743
5709 5710 5711 5712 5713 5714 5715 5716 5717 5718 5720 5721 5722 5723 5724 5725 5727 5728 5729 5730 5730 5730 5731 5731 5731 5731 5732 5733 5734 5734 5734 5734 5735 5736 5737 5737 5737 5737 5737 5737 5737 5737 5737 5737
5703 5704 5704 5705 5706 5707 5708 5709 5709 5711 5712 5713 5715 5716 5718 5719 5720 5721 5722 5723 5724 5724 5725 5725 5725 5725 5726 5727 5727 5727 5727 5727 5728 5729 5729 5730 5730 5730 5730 5730 5731 5731 5731 5731